Date String (YYYY-MM-DD hh:mm:ss) UTC,Instrument flags,Ambient pressure (hPa),Sample flow (lpm),Bypass flow (lpm),Sample temperature (°C),Ambient temperature (°C),ASC tube jacket temperature (°C),LED temperature (°C),Box temperature (°C),Sample RH (%),Span deviation,Mass concentration (μg/m³),Mass concentration (μg/m³),Mass concentration (μg/m³)
DateTimeUTC,F1_M11,P_M11,Q1_M11,Q2_M11,T1_M11,T2_M11,T3_M11,T4_M11,T5_M11,U1_M11,ZSPAN_M11,X2_M11,X0_M11,X1_M11
2021-11-11 08:00:00,,0827.6,5.01,0.00,22.5,21.8,00.0,31.5,24.3,12.1,0000.0,0004.10,0008.72,0003.41
2021-11-11 08:01:00,,0827.7,4.99,0.00,22.5,21.8,00.0,31.5,24.3,12.1,0000.0,0004.10,0008.17,0003.40
2021-11-11 08:02:00,,0827.7,5.00,0.00,22.5,21.8,00.0,31.5,24.3,12.1,0000.0,0004.11,0008.80,0003.41
2021-11-11 08:03:00,,0827.7,4.98,0.00,22.5,21.8,00.0,31.5,24.3,12.1,0000.0,0004.10,0008.91,0003.41
2021-11-11 08:04:00,,0827.7,5.01,0.00,22.5,21.8,00.0,31.5,24.3,12.2,0000.0,0004.08,0008.89,0003.40
2021-11-11 08:05:00,,0827.5,4.99,0.00,22.5,21.8,00.0,31.5,24.2,12.2,0000.0,0004.12,0009.45,0003.40
2021-11-11 08:06:00,,0827.5,5.01,0.00,22.4,21.7,00.0,31.5,24.1,12.3,0000.0,0004.15,0009.59,0003.40
2021-11-11 08:07:00,,0827.5,4.99,0.00,22.4,21.7,00.0,31.5,24.1,12.2,0000.0,0004.16,0009.69,0003.40
2021-11-11 08:08:00,,0827.5,5.00,0.00,22.4,21.7,00.0,31.5,24.1,12.5,0000.0,0004.16,0009.29,0003.39
2021-11-11 08:09:00,,0827.6,4.99,0.00,22.4,21.7,00.0,31.5,24.2,12.6,0000.0,0004.13,0009.14,0003.37
2021-11-11 08:10:00,,0827.5,5.01,0.00,22.4,21.7,00.0,31.5,24.2,12.7,0000.0,0004.17,0009.24,0003.36
2021-11-11 08:11:00,,0827.7,4.99,0.00,22.4,21.8,00.0,31.5,24.2,12.6,0000.0,0004.22,0009.36,0003.37
2021-11-11 08:12:00,,0827.8,5.01,0.00,22.4,21.8,00.0,31.5,24.3,12.5,0000.0,0004.20,0009.38,0003.37
2021-11-11 08:13:00,,0827.7,4.99,0.00,22.5,21.8,00.0,31.5,24.2,12.5,0000.0,0004.24,0008.86,0003.37
2021-11-11 08:14:00,,0827.7,5.01,0.00,22.5,21.8,00.0,31.5,24.3,12.6,0000.0,0004.29,0008.99,0003.37
2021-11-11 08:15:00,,0827.7,5.00,0.00,22.5,21.9,00.0,31.5,24.3,12.6,0000.0,0004.30,0009.05,0003.36
2021-11-11 08:16:00,,0827.7,4.99,0.00,22.5,21.9,00.0,31.5,24.3,12.9,0000.0,0004.24,0008.52,0003.36
2021-11-11 08:17:00,,0827.7,5.01,0.00,22.5,21.9,00.0,31.5,24.3,13.1,0000.0,0004.17,0008.83,0003.35
2021-11-11 08:18:00,,0827.7,4.98,0.00,22.6,21.9,00.0,31.5,24.4,13.1,0000.0,0004.15,0008.86,0003.34
2021-11-11 08:19:00,,0827.7,5.01,0.00,22.6,21.9,00.0,31.5,24.4,13.0,0000.0,0004.17,0008.97,0003.34
2021-11-11 08:20:00,,0827.7,5.00,0.00,22.6,21.9,00.0,31.5,24.4,13.0,0000.0,0004.16,0008.96,0003.34
2021-11-11 08:21:00,,0827.7,5.01,0.00,22.6,21.9,00.0,31.6,24.4,13.0,0000.0,0004.10,0008.81,0003.34
2021-11-11 08:22:00,,0827.7,4.99,0.00,22.6,21.9,00.0,31.6,24.4,13.1,0000.0,0004.07,0008.79,0003.33
2021-11-11 08:23:00,,0827.7,4.99,0.00,22.6,21.9,00.0,31.6,24.4,13.1,0000.0,0004.03,0008.60,0003.31
2021-11-11 08:24:00,,0827.8,5.00,0.00,22.6,21.9,00.0,31.6,24.4,13.2,0000.0,0003.98,0008.48,0003.30
2021-11-11 08:25:00,,0827.7,5.00,0.00,22.6,21.9,00.0,31.6,24.3,13.3,0000.0,0003.93,0009.07,0003.28
2021-11-11 08:26:00,,0827.7,5.00,0.00,22.6,21.8,00.0,31.6,24.3,13.3,0000.0,0003.93,0009.30,0003.28
2021-11-11 08:27:00,,0827.7,4.99,0.00,22.5,21.8,00.0,31.6,24.3,13.4,0000.0,0003.96,0009.70,0003.28
2021-11-11 08:28:00,,0827.7,4.99,0.00,22.5,21.8,00.0,31.6,24.2,13.4,0000.0,0003.98,0009.37,0003.28
2021-11-11 08:29:00,,0827.7,4.98,0.00,22.5,21.7,00.0,31.6,24.2,13.4,0000.0,0003.97,0009.12,0003.27
2021-11-11 08:30:00,,0827.7,5.00,0.00,22.4,21.7,00.0,31.5,24.2,13.5,0000.0,0003.94,0008.88,0003.27
2021-11-11 08:31:00,,0827.7,5.00,0.00,22.4,21.7,00.0,31.5,24.2,13.5,0000.0,0003.90,0008.75,0003.27
2021-11-11 08:32:00,,0827.7,5.00,0.00,22.4,21.7,00.0,31.5,24.2,13.4,0000.0,0003.94,0009.08,0003.27
2021-11-11 08:33:00,,0827.7,5.00,0.00,22.5,21.7,00.0,31.5,24.2,13.4,0000.0,0003.96,0009.06,0003.27
2021-11-11 08:34:00,,0827.8,5.01,0.00,22.5,21.8,00.0,31.5,24.3,13.4,0000.0,0003.97,0009.61,0003.28
2021-11-11 08:35:00,,0827.7,4.99,0.00,22.5,21.8,00.0,31.5,24.3,13.4,0000.0,0003.99,0010.04,0003.28
2021-11-11 08:36:00,,0827.7,4.99,0.00,22.5,21.8,00.0,31.5,24.3,13.5,0000.0,0004.00,0009.57,0003.29
2021-11-11 08:37:00,,0827.7,5.01,0.00,22.5,21.8,00.0,31.5,24.3,13.5,0000.0,0003.99,0009.06,0003.29
2021-11-11 08:38:00,,0827.7,5.00,0.00,22.5,21.8,00.0,31.5,24.3,13.4,0000.0,0003.94,0008.51,0003.29
2021-11-11 08:39:00,,0827.7,4.99,0.00,22.5,21.8,00.0,31.5,24.3,13.4,0000.0,0003.92,0008.37,0003.29
2021-11-11 08:40:00,,0827.8,4.98,0.00,22.5,21.8,00.0,31.5,24.3,13.4,0000.0,0003.93,0008.40,0003.28
2021-11-11 08:41:00,,0827.8,5.01,0.00,22.5,21.8,00.0,31.5,24.3,13.5,0000.0,0003.90,0008.76,0003.28
2021-11-11 08:42:00,,0827.8,5.01,0.00,22.5,21.8,00.0,31.5,24.3,13.5,0000.0,0003.95,0008.99,0003.28
2021-11-11 08:43:00,,0827.7,4.99,0.00,22.6,21.8,00.0,31.5,24.3,13.5,0000.0,0003.92,0008.79,0003.28
2021-11-11 08:44:00,,0827.8,5.00,0.00,22.5,21.8,00.0,31.5,24.3,13.6,0000.0,0003.89,0008.74,0003.27
2021-11-11 08:45:00,,0827.8,5.01,0.00,22.6,21.8,00.0,31.6,24.3,13.7,0000.0,0003.86,0008.43,0003.25
2021-11-11 08:46:00,,0827.9,4.99,0.00,22.6,21.8,00.0,31.6,24.3,13.7,0000.0,0003.86,0007.91,0003.26
2021-11-11 08:47:00,,0827.9,5.00,0.00,22.6,21.8,00.0,31.6,24.3,13.7,0000.0,0003.85,0007.84,0003.26
2021-11-11 08:48:00,,0827.9,5.00,0.00,22.5,21.8,00.0,31.6,24.3,13.7,0000.0,0003.83,0007.78,0003.27
2021-11-11 08:49:00,,0827.9,4.99,0.00,22.5,21.8,00.0,31.6,24.3,13.7,0000.0,0003.89,0007.92,0003.29
2021-11-11 08:50:00,,0827.9,5.01,0.00,22.5,21.8,00.0,31.6,24.3,13.7,0000.0,0003.92,0008.00,0003.30
2021-11-11 08:51:00,,0828.0,5.00,0.00,22.5,21.8,00.0,31.5,24.3,13.7,0000.0,0003.94,0008.17,0003.31
2021-11-11 08:52:00,,0827.9,5.01,0.00,22.5,21.8,00.0,31.5,24.3,13.7,0000.0,0003.93,0007.90,0003.32
2021-11-11 08:53:00,,0828.0,5.01,0.00,22.5,21.8,00.0,31.6,24.3,13.7,0000.0,0003.89,0007.58,0003.32
2021-11-11 08:54:00,,0828.0,5.00,0.00,22.6,21.8,00.0,31.5,24.3,13.7,0000.0,0003.84,0007.67,0003.32
2021-11-11 08:55:00,,0827.9,4.99,0.00,22.6,21.8,00.0,31.6,24.3,13.7,0000.0,0003.85,0008.05,0003.33
2021-11-11 08:56:00,,0827.9,5.00,0.00,22.6,21.8,00.0,31.6,24.3,13.7,0000.0,0003.89,0009.17,0003.36
2021-11-11 08:57:00,,0827.9,5.01,0.00,22.6,21.8,00.0,31.6,24.3,13.7,0000.0,0003.90,0009.56,0003.36
2021-11-11 08:58:00,,0827.9,4.99,0.00,22.6,21.8,00.0,31.6,24.3,13.7,0000.0,0003.92,0009.58,0003.38
2021-11-11 08:59:00,,0827.9,5.00,0.00,22.6,21.8,00.0,31.6,24.3,13.7,0000.0,0003.97,0009.80,0003.41
